Weather History for KJBR - February, 2012

Change the Weather History Date:

Friday, February 17, 2012

  Actual Average Record
Temperature  
Mean Temperature 47 °F 42 °F  
Max Temperature 53 °F 52 °F 78 °F (1913)
Min Temperature 40 °F 32 °F 2 °F (1900)
Degree Days  
Heating Degree Days 18 23  
Month to date heating degree days 374 423  
Since 1 July heating degree days 2260 2719  
Cooling Degree Days 0 0  
Month to date cooling degree days 0 0  
Year to date cooling degree days 0 0  
Moisture  
Dew Point 39 °F    
Average Humidity 70    
Maximum Humidity 89    
Minimum Humidity 50    
Precipitation  
Precipitation T in 0.14 in 1.69 in (1944)
Month to date precipitation 2.12 2.20  
Year to date precipitation 4.86 5.63  
Snow  
Snow 0.00 in 0.00 in 4.00 in (1952)
Month to date snowfall 0.5 0.9  
Since 1 July snowfall 5.5 3.7  
Snow Depth 0.00 in    
Sea Level Pressure  
Sea Level Pressure 30.18 in    
Wind  
Wind Speed 5 mph (ENE)    
Max Wind Speed 12 mph    
Max Gust Speed 14 mph    
Visibility 8 miles    
Events      
T = Trace of Precipitation, MM = Missing Value Source: NWS Daily Summary

Daily Weather History Graph

Daily Weather History Graph

Search for Another Location

Airport or City:

Trip Planner

Search our weather history database for the weather conditions in past years. The results will help you decide how hot, cold, wet, or windy it might be!

Date:

Astronomy

Feb. 17, 2012 Rise Set
Actual Time 6:47 AM CST 5:45 PM CST
Civil Twilight 6:21 AM CST 6:11 PM CST
Nautical Twilight 5:51 AM CST 6:41 PM CST
Astronomical Twilight 5:22 AM CST 7:11 PM CST
Moon 3:33 AM CST (2/17) 1:44 PM CST (2/17)
Length of Visible Light 11h 50m
Length of Day
10h 57m
Waning Crescent, 19% of the Moon is Illuminated
Feb 17
Waning Crescent
Feb 21
New
Feb 29
First Quarter
Mar 8
Full
Mar 14
Last Quarter

Hourly Weather History & Observations

Time (CST) Temp. Windchill Dew Point Humidity Pressure Visibility Wind Dir Wind Speed Gust Speed Precip Events Conditions
12:53 AM 45.0 °F 40.6 °F 39.9 °F 82% 30.24 in 7.0 mi NE 8.1 mph - N/A   Clear
1:53 AM 43.0 °F 38.8 °F 39.0 °F 86% 30.24 in 7.0 mi NE 6.9 mph - N/A   Clear
2:53 AM 43.0 °F 37.7 °F 39.0 °F 86% 30.20 in 6.0 mi NE 9.2 mph - N/A   Clear
3:53 AM 42.1 °F 36.6 °F 37.9 °F 85% 30.19 in 5.0 mi NE 9.2 mph - N/A   Clear
4:53 AM 42.1 °F 36.1 °F 37.9 °F 85% 30.20 in 6.0 mi NE 10.4 mph - N/A   Clear
5:53 AM 41.0 °F 36.4 °F 37.4 °F 87% 30.21 in 5.0 mi ENE 6.9 mph - N/A   Clear
6:53 AM 41.0 °F 36.4 °F 37.0 °F 86% 30.22 in 5.0 mi NE 6.9 mph - N/A   Clear
7:53 AM 41.0 °F 35.2 °F 37.0 °F 86% 30.23 in 4.0 mi NE 9.2 mph - N/A   Clear
8:53 AM 44.6 °F 40.7 °F 37.4 °F 76% 30.25 in 4.0 mi East 6.9 mph - N/A   Haze
9:53 AM 46.9 °F - 39.0 °F 74% 30.24 in 5.0 mi East 9.2 mph - N/A   Haze
10:53 AM 48.9 °F - 39.0 °F 69% 30.24 in 6.0 mi East 6.9 mph - N/A   Haze
11:53 AM 51.1 °F - 39.0 °F 63% 30.22 in 8.0 mi East 3.5 mph - N/A   Clear
12:53 PM 51.1 °F - 37.9 °F 61% 30.21 in 9.0 mi Calm Calm - N/A   Clear
1:53 PM 52.0 °F - 37.0 °F 57% 30.19 in 10.0 mi Calm Calm - N/A   Clear
2:53 PM 53.1 °F - 36.0 °F 52% 30.16 in 10.0 mi Calm Calm - N/A   Clear
3:53 PM 52.0 °F - 37.9 °F 59% 30.14 in 10.0 mi East 6.9 mph - N/A   Clear
4:53 PM 51.1 °F - 37.9 °F 61% 30.12 in 10.0 mi East 5.8 mph - N/A   Partly Cloudy
5:53 PM 48.9 °F - 41.0 °F 74% 30.12 in 10.0 mi ENE 3.5 mph - N/A   Partly Cloudy
6:53 PM 48.0 °F - 39.9 °F 74% 30.12 in 10.0 mi ENE 5.8 mph - N/A   Clear
7:53 PM 48.0 °F - 39.9 °F 74% 30.12 in 10.0 mi Calm Calm - N/A   Mostly Cloudy
8:53 PM 48.2 °F - 41.0 °F 76% 30.12 in 9.0 mi Calm Calm - N/A   Mostly Cloudy
9:53 PM 46.4 °F - 39.2 °F 76% 30.14 in 9.0 mi Calm Calm - N/A   Overcast
10:53 PM 46.9 °F - 39.9 °F 77% 30.12 in 9.0 mi NNW 5.8 mph - N/A   Mostly Cloudy
11:53 PM 46.9 °F - 39.0 °F 74% 30.12 in 9.0 mi Calm Calm - N/A   Overcast